This demonstration page uses our WeatherBlox Daily Observations layout. Learn more.

Left ArrowRight Arrow

39.12711, -84.51439

Hourly Observations for June 30, 2016

Temp ( °F °C ) Dew Point ( °F °C ) Humidity (%) Winds ( mph kmh ) Pressure ( in mb ) Visibility ( mi km ) Precip ( " mm )
12:53 am 00:53 Clear 59 15 58 14.4 96 96 N N/A 30.06 1018 10 16 N/A
1:53 am 01:53 Clear 57 13.9 56 13.3 96 96 NE 3 6 30.07 1018 10 16 N/A
2:53 am 02:53 Clear 53 11.7 53 11.7 100 100 N N/A 30.07 1018 10 16 N/A
3:53 am 03:53 Clear 56 13.3 56 13.3 100 100 N N/A 30.06 1018 10 16 N/A
4:53 am 04:53 Clear 54 12.2 54 12.2 100 100 ENE 3 6 30.06 1018 10 16 N/A
5:53 am 05:53 Clear 53 11.7 53 11.7 100 100 N N/A 30.06 1018 10 16 N/A
6:45 am 06:45 Mostly Cloudy with Mist and Fog 54 12.2 54 12.2 100 100 N N/A 30.09 1019 1 2 N/A
6:50 am 06:50 Mostly Cloudy with Fog 54 12 54 12 100 100 N N/A 30.09 1019 0 0 N/A
6:53 am 06:53 Partly Cloudy with Patchy Fog 54 12.2 54 12.2 100 100 N N/A 30.08 1019 10 16 N/A
7:53 am 07:53 Sunny 58 14.4 58 14.4 100 100 N N/A 30.08 1019 10 16 N/A
8:53 am 08:53 Sunny 63 17.2 61 16.1 93 93 N N/A 30.08 1019 10 16 N/A
9:53 am 09:53 Sunny 70 21.1 62 16.7 76 76 SSW 3 6 30.08 1019 10 16 N/A
10:53 am 10:53 Partly Cloudy 75 23.9 57 13.9 54 54 S 5 7 30.06 1018 10 16 N/A
11:53 am 11:53 Partly Cloudy 76 24.4 51 10.6 42 42 N N/A 30.05 1018 10 16 N/A
12:53 pm 12:53 Mostly Sunny 77 25 53 11.7 43 43 VRB 5 7 30.04 1017 10 16 N/A
1:53 pm 13:53 Mostly Sunny 79 26.1 53 11.7 41 41 N N/A 30.03 1017 10 16 N/A
2:53 pm 14:53 Mostly Sunny 80 26.7 54 12.2 41 41 S 6 9 30.01 1016 10 16 N/A
3:53 pm 15:53 Mostly Sunny 80 26.7 55 12.8 42 42 SSW 5 7 30.00 1016 10 16 N/A
4:53 pm 16:53 Mostly Sunny 78 25.6 56 13.3 47 47 S 8 13 30.00 1016 10 16 N/A
5:53 pm 17:53 Sunny 78 25.6 59 15 52 52 S 5 7 29.99 1016 10 16 N/A
6:53 pm 18:53 Sunny 78 25.6 58 14.4 50 50 SSE 7 11 29.97 1015 10 16 N/A
7:53 pm 19:53 Sunny 77 25 60 15.6 56 56 SSW 7 11 29.97 1015 10 16 N/A
8:53 pm 20:53 Sunny 71 21.7 60 15.6 68 68 S 5 7 29.97 1015 10 16 N/A
9:53 pm 21:53 Clear 65 18.3 60 15.6 84 84 SSW 6 9 29.98 1015 10 16 N/A
10:53 pm 22:53 Clear 65 18.3 61 16.1 87 87 N N/A 29.98 1015 10 16 N/A
11:53 pm 23:53 Mostly Cloudy 65 18.3 62 16.7 90 90 N N/A 29.98 1015 10 16 N/A

Powered by AerisWeather